FW7658 Weather Reports


time (UTC)temp
F
wind
direction
speed
knots
gust
knots
rain 1hr
in
rain 24hr
in
rain mn
in
humidity
%
barometer
mb
20260509111555 62 0 0.0 0.0 0.00 0.00 0.00 94 1012.9
20260509110057 62 0 0.0 0.0 0.00 0.00 0.00 94 1012.7
20260509104555 61 0 0.0 0.0 0.00 0.00 0.00 94 1012.5
20260509103101 62 0 0.0 0.0 0.00 0.00 0.00 93 1012.1
20260509101559 62 0 0.0 0.0 0.00 0.00 0.00 92 1012.1
20260509100055 63 0 0.0 0.0 0.00 0.00 0.00 92 1012.0
20260509094555 63 0 0.0 0.0 0.00 0.00 0.00 91 1012.2
20260509093056 63 0 0.0 0.0 0.00 0.00 0.00 91 1012.4
20260509091619 63 0 0.0 0.0 0.00 0.00 0.00 91 1012.6
20260509090056 63 0 0.0 0.0 0.00 0.00 0.00 91 1012.7
20260509084555 63 0 0.0 0.0 0.00 0.00 0.00 91 1012.5
20260509083055 63 0 0.0 0.0 0.00 0.00 0.00 91 1012.3
20260509081556 63 0 0.0 0.0 0.00 0.00 0.00 90 1012.0
20260509080107 63 0 0.0 0.0 0.00 0.00 0.00 90 1012.8
20260509074601 63 0 0.0 0.0 0.00 0.00 0.00 90 1013.1
20260509073131 63 0 0.0 0.0 0.00 0.00 0.00 89 1012.9
20260509071555 63 0 0.0 0.0 0.00 0.00 0.00 89 1012.8
20260509070100 63 0 0.0 0.0 0.00 0.00 0.00 89 1012.9
20260509064555 63 0 0.0 0.0 0.00 0.00 0.00 88 1013.2
20260509063101 63 0 0.0 0.0 0.00 0.00 0.00 88 1013.3
20260509061602 64 0 0.0 0.0 0.00 0.00 0.00 87 1013.6
20260509060105 64 0 0.0 0.0 0.00 0.00 0.00 87 1014.1
20260509054611 64 0 0.0 0.0 0.00 0.00 0.00 86 1013.9
20260509053058 64 0 0.0 0.0 0.00 0.00 0.00 86 1013.8
20260509051556 64 0 0.0 0.0 0.00 0.00 0.00 86 1014.0
20260509050059 64 0 0.0 0.0 0.00 0.00 0.00 86 1014.6
20260509044603 64 0 0.0 0.0 0.00 0.00 0.00 85 1014.6
20260509043055 64 0 0.0 0.0 0.00 0.00 0.00 84 1015.1
20260509041558 64 0 0.0 0.0 0.00 0.00 0.00 84 1015.2
20260509040126 64 0 0.0 0.0 0.00 0.00 0.00 84 1015.1
20260509034558 64 0 0.0 0.0 0.00 0.00 0.00 84 1015.3
20260509033058 64 0 0.0 0.0 0.00 0.00 0.00 83 1015.5
20260509031558 64 0 0.0 0.0 0.00 0.00 0.00 83 1015.7
20260509030059 64 0 0.0 0.0 0.00 0.00 0.00 83 1015.8
20260509024556 65 0 0.0 0.0 0.00 0.00 0.00 82 1015.7
20260509023053 65 0 0.0 0.0 0.00 0.00 0.00 82 1015.4
20260509021553 65 0 0.0 0.0 0.00 0.00 0.00 82 1015.7
20260509020056 65 0 0.0 0.0 0.00 0.00 0.00 81 1015.5
20260509014557 65 0 0.0 0.0 0.00 0.00 0.00 80 1015.5
20260509013056 65 0 0.0 0.0 0.00 0.00 0.00 80 1015.4
20260509011605 65 0 0.0 0.0 0.00 0.00 0.00 79 1015.5
20260509010057 65 0 0.0 1.7 0.00 0.00 0.00 78 1015.2
20260509004608 65 0 0.0 0.9 0.00 0.00 0.00 77 1015.1
20260509003057 66 134 0.0 2.6 0.00 0.00 0.00 76 1014.9
20260509001557 66 0 0.0 2.6 0.00 0.00 0.00 75 1014.8
20260509000058 66 52 0.0 2.6 0.00 0.00 0.00 73 1014.8
20260508234554 66 103 0.0 3.5 0.00 0.00 0.00 72 1014.6
20260508233054 67 0 0.0 4.3 0.00 0.00 0.00 71 1014.4
20260508231555 67 1 0.9 4.3 0.00 0.00 0.00 70 1014.5
20260508230103 68 0 0.0 3.5 0.00 0.00 0.00 70 1014.7
20260508224556 68 0 0.9 2.6 0.00 0.00 0.00 69 1014.9
20260508223059 68 131 0.0 4.3 0.00 0.00 0.00 67 1014.5
20260508221555 69 0 0.9 7.0 0.00 0.00 0.00 67 1014.4
20260508220100 69 0 0.0 3.5 0.00 0.00 0.00 68 1014.6
20260508214607 70 203 0.9 7.0 0.00 0.00 0.00 66 1014.5
20260508213053 71 0 0.9 7.0 0.00 0.00 0.00 65 1014.4
20260508211558 71 157 0.9 7.0 0.00 0.00 0.00 66 1014.6
20260508210055 72 0 1.7 9.6 0.00 0.00 0.00 63 1014.4
20260508204601 74 88 1.7 7.0 0.00 0.16 0.00 63 1014.1
20260508203101 74 95 0.9 7.0 0.00 0.16 0.00 60 1014.2
20260508201557 77 208 0.9 4.3 0.00 0.16 0.00 53 1014.0
20260508200054 77 309 0.0 1.7 0.00 0.16 0.00 51 1014.2
20260508194614 76 0 0.9 5.2 0.00 0.40 0.00 50 1014.6
20260508193111 75 152 0.9 3.5 0.00 0.40 0.00 53 1014.8
20260508191553 77 273 0.9 3.5 0.00 0.40 0.00 53 1014.7
20260508190056 75 184 0.0 6.1 0.00 0.40 0.00 52 1014.8
20260508184602 76 346 0.0 5.2 0.00 0.50 0.00 54 1015.1
20260508183056 75 126 1.7 4.3 0.00 0.50 0.00 51 1015.2
20260508181601 76 0 0.0 4.3 0.00 0.50 0.00 51 1015.4
20260508180058 75 0 0.0 3.5 0.00 0.50 0.00 53 1015.5
20260508174602 74 132 0.9 5.2 0.00 0.50 0.00 51 1015.7
20260508173056 74 0 0.0 3.5 0.00 0.50 0.00 50 1015.9
20260508171600 73 0 0.9 5.2 0.00 0.50 0.00 52 1015.9
20260508164603 73 31 0.9 4.3 0.00 0.50 0.00 53 1016.1
20260508163106 73 133 0.9 3.5 0.00 0.50 0.00 55 1016.2
20260508161556 73 263 0.0 4.3 0.00 0.50 0.00 54 1016.5
20260508160129 71 310 0.9 5.2 0.00 0.50 0.00 56 1017.1
20260508154558 71 334 1.7 7.0 0.00 0.50 0.00 52 1017.5
20260508153056 70 0 1.7 7.0 0.00 0.50 0.00 56 1017.4
20260508151556 70 355 1.7 7.0 0.00 0.50 0.00 58 1017.5
20260508150055 69 138 1.7 7.0 0.00 0.50 0.00 61 1017.3
20260508144553 68 150 1.7 5.2 0.00 0.50 0.00 62 1017.5
20260508143105 66 275 1.7 7.8 0.00 0.50 0.00 66 1017.5
20260508141601 66 286 1.7 7.8 0.00 0.50 0.00 66 1017.3
20260508140054 66 13 0.9 5.2 0.00 0.50 0.00 69 1017.1
20260508134554 64 0 0.0 7.0 0.00 0.50 0.00 72 1017.1
20260508133059 64 0 0.0 7.0 0.00 0.50 0.00 77 1016.8
20260508131553 63 0 0.0 7.0 0.00 0.50 0.00 80 1016.5
20260508130057 62 0 1.7 6.1 0.00 0.50 0.00 83 1016.4
20260508124554 61 0 0.0 4.3 0.00 0.50 0.00 86 1016.3
20260508123055 61 0 0.0 0.0 0.00 0.50 0.00 89 1016.1
20260508121607 59 0 0.0 1.7 0.00 0.50 0.00 91 1015.8
20260508120053 59 0 0.9 3.5 0.00 0.50 0.00 92 1015.7
20260508114556 59 0 0.0 2.6 0.00 0.50 0.00 93 1015.6
20260508113053 58 0 0.0 0.0 0.00 0.50 0.00 94 1015.3